Back to Top

Language: 

My Weather Underground Personal Weather Station Historical Data with Graphs...

Delerius Weather Station Historical Data
Daily Summary for May 6, 2017 Units:  Metric    English   Both
« Previous Day
Next Day »
Daily Weekly Monthly Yearly Custom
  High: Low: Average:
Temperature: 11.7 °C 6.4 °C 9.2 °C
Dew Point: 7.9 °C 4.7 °C 6.7 °C
Humidity: 93 % 71 % 85 %
Wind Speed: 16.1 km/h 1.6 km/h 8.5 km/h
Wind Gust: 29 km/h - -
Wind:- - ENE
Pressure: 1019.5 hPa 1015.5 hPa -
Precipitation: 0 mm    
Historical Graphs
 
 
Tabular Data for May 6, 2017
Time Temperature Dew Point Pressure Wind Wind Speed Wind Gust Humidity Rainfall Rate (Hourly) solar Conditions
00:02 6.6 °C 4.9 °C 1019.5 hPa NE 8 km/h 16.1 km/h 89 % 0 mm 0 W/m2
00:07 6.5 °C 4.8 °C 1019.5 hPa NE 6.4 km/h 14.5 km/h 89 % 0 mm 0 W/m2
00:12 6.5 °C 4.8 °C 1019.5 hPa NE 6.4 km/h 14.5 km/h 89 % 0 mm 0 W/m2
00:17 6.4 °C 4.7 °C 1019.5 hPa ENE 6.4 km/h 14.5 km/h 89 % 0 mm 0 W/m2
00:22 6.5 °C 5 °C 1019.5 hPa NE 6.4 km/h 16.1 km/h 90 % 0 mm 0 W/m2
00:27 6.5 °C 5 °C 1019.5 hPa NE 8 km/h 17.7 km/h 90 % 0 mm 0 W/m2
00:32 6.5 °C 5 °C 1019.5 hPa ENE 4.8 km/h 17.7 km/h 90 % 0 mm 0 W/m2
00:37 6.5 °C 5 °C 1019.5 hPa NE 4.8 km/h 12.9 km/h 90 % 0 mm 0 W/m2
00:38 6.5 °C 5 °C 1019.5 hPa NE 4.8 km/h 12.9 km/h 90 % 0 mm 0 W/m2
00:44 6.6 °C 5.1 °C 1019.5 hPa NE 4.8 km/h 11.3 km/h 90 % 0 mm 0 W/m2
00:49 6.6 °C 5.1 °C 1019.5 hPa NE 4.8 km/h 12.9 km/h 90 % 0 mm 0 W/m2
00:54 6.6 °C 5.1 °C 1019.5 hPa NE 6.4 km/h 12.9 km/h 90 % 0 mm 0 W/m2
00:59 6.6 °C 5.1 °C 1019.5 hPa NE 4.8 km/h 12.9 km/h 90 % 0 mm 0 W/m2
01:04 6.6 °C 5.1 °C 1019.5 hPa NE 6.4 km/h 16.1 km/h 90 % 0 mm 0 W/m2
01:09 6.6 °C 5.1 °C 1019.5 hPa NE 6.4 km/h 16.1 km/h 90 % 0 mm 0 W/m2
01:14 6.6 °C 5.1 °C 1019.5 hPa NE 6.4 km/h 14.5 km/h 90 % 0 mm 0 W/m2
01:19 6.6 °C 5.1 °C 1019.2 hPa NE 6.4 km/h 17.7 km/h 90 % 0 mm 0 W/m2
01:24 6.6 °C 5.2 °C 1019.2 hPa NNE 6.4 km/h 17.7 km/h 91 % 0 mm 0 W/m2
01:29 6.6 °C 5.2 °C 1019.2 hPa NE 6.4 km/h 14.5 km/h 91 % 0 mm 0 W/m2
01:34 6.7 °C 5.3 °C 1019.2 hPa NE 6.4 km/h 14.5 km/h 91 % 0 mm 0 W/m2
01:39 6.7 °C 5.3 °C 1019.2 hPa NE 4.8 km/h 14.5 km/h 91 % 0 mm 0 W/m2
01:44 6.7 °C 5.3 °C 1018.8 hPa NE 6.4 km/h 14.5 km/h 91 % 0 mm 0 W/m2
01:49 6.7 °C 5.3 °C 1018.8 hPa NE 8 km/h 12.9 km/h 91 % 0 mm 0 W/m2
01:54 6.7 °C 5.3 °C 1018.8 hPa NE 8 km/h 16.1 km/h 91 % 0 mm 0 W/m2
01:59 6.7 °C 5.3 °C 1018.8 hPa NE 9.7 km/h 17.7 km/h 91 % 0 mm 0 W/m2
02:04 6.7 °C 5.3 °C 1018.8 hPa NNE 11.3 km/h 19.3 km/h 91 % 0 mm 0 W/m2
02:09 6.7 °C 5.3 °C 1018.8 hPa NNE 11.3 km/h 19.3 km/h 91 % 0 mm 0 W/m2
02:14 6.7 °C 5.3 °C 1018.8 hPa NE 9.7 km/h 17.7 km/h 91 % 0 mm 0 W/m2
02:19 6.7 °C 5.3 °C 1018.8 hPa NE 9.7 km/h 19.3 km/h 91 % 0 mm 0 W/m2
02:24 6.7 °C 5.3 °C 1018.5 hPa NE 11.3 km/h 22.5 km/h 91 % 0 mm 0 W/m2
02:29 6.7 °C 5.3 °C 1018.5 hPa NE 9.7 km/h 22.5 km/h 91 % 0 mm 0 W/m2
02:34 6.7 °C 5.3 °C 1018.5 hPa NE 9.7 km/h 17.7 km/h 91 % 0 mm 0 W/m2
02:39 6.7 °C 5.3 °C 1018.5 hPa NE 11.3 km/h 17.7 km/h 91 % 0 mm 0 W/m2
02:44 6.7 °C 5.3 °C 1018.5 hPa NE 9.7 km/h 16.1 km/h 91 % 0 mm 0 W/m2
02:49 6.7 °C 5.3 °C 1018.5 hPa NE 8 km/h 14.5 km/h 91 % 0 mm 0 W/m2
02:54 6.7 °C 5.3 °C 1018.5 hPa NE 8 km/h 17.7 km/h 91 % 0 mm 0 W/m2
02:59 6.7 °C 5.3 °C 1018.5 hPa NE 8 km/h 17.7 km/h 91 % 0 mm 0 W/m2
03:05 6.8 °C 5.4 °C 1018.5 hPa NE 8 km/h 16.1 km/h 91 % 0 mm 0 W/m2
03:10 6.8 °C 5.4 °C 1018.5 hPa NE 8 km/h 16.1 km/h 91 % 0 mm 0 W/m2
03:15 6.8 °C 5.4 °C 1018.2 hPa NE 8 km/h 16.1 km/h 91 % 0 mm 0 W/m2
03:20 6.8 °C 5.6 °C 1018.2 hPa NE 9.7 km/h 20.9 km/h 92 % 0 mm 0 W/m2
03:25 6.8 °C 5.6 °C 1018.2 hPa NE 11.3 km/h 20.9 km/h 92 % 0 mm 0 W/m2
03:30 6.9 °C 5.7 °C 1018.2 hPa NE 9.7 km/h 17.7 km/h 92 % 0 mm 0 W/m2
03:35 6.9 °C 5.7 °C 1018.2 hPa NE 6.4 km/h 14.5 km/h 92 % 0 mm 0 W/m2
03:40 6.9 °C 5.7 °C 1018.2 hPa NE 8 km/h 16.1 km/h 92 % 0 mm 0 W/m2
03:45 6.9 °C 5.7 °C 1017.8 hPa NE 9.7 km/h 19.3 km/h 92 % 0 mm 0 W/m2
03:50 6.9 °C 5.7 °C 1017.8 hPa NE 9.7 km/h 19.3 km/h 92 % 0 mm 0 W/m2
03:55 6.9 °C 5.7 °C 1017.8 hPa NE 8 km/h 17.7 km/h 92 % 0 mm 0 W/m2
04:00 6.9 °C 5.7 °C 1017.8 hPa NE 8 km/h 19.3 km/h 92 % 0 mm 0 W/m2
04:05 6.9 °C 5.7 °C 1017.8 hPa NE 8 km/h 19.3 km/h 92 % 0 mm 0 W/m2
04:10 6.9 °C 5.7 °C 1017.8 hPa NE 6.4 km/h 17.7 km/h 92 % 0 mm 0 W/m2
04:15 6.9 °C 5.7 °C 1017.8 hPa NE 6.4 km/h 12.9 km/h 92 % 0 mm 0 W/m2
04:20 6.9 °C 5.7 °C 1017.5 hPa NE 8 km/h 17.7 km/h 92 % 0 mm 0 W/m2
04:25 7 °C 5.8 °C 1017.5 hPa NE 8 km/h 17.7 km/h 92 % 0 mm 0 W/m2
04:30 7 °C 5.8 °C 1017.5 hPa ENE 8 km/h 17.7 km/h 92 % 0 mm 0 W/m2
04:35 7 °C 5.8 °C 1017.5 hPa ENE 9.7 km/h 19.3 km/h 92 % 0 mm 0 W/m2
04:40 7.1 °C 5.9 °C 1017.5 hPa ENE 8 km/h 19.3 km/h 92 % 0 mm 0 W/m2
04:45 7 °C 5.8 °C 1017.5 hPa ENE 11.3 km/h 20.9 km/h 92 % 0 mm 0 W/m2
04:50 7 °C 5.8 °C 1017.5 hPa ENE 11.3 km/h 20.9 km/h 92 % 0 mm 0 W/m2
04:55 7.1 °C 5.9 °C 1017.5 hPa ENE 9.7 km/h 20.9 km/h 92 % 0 mm 0 W/m2
05:00 7.1 °C 5.9 °C 1017.5 hPa ENE 11.3 km/h 20.9 km/h 92 % 0 mm 0 W/m2
05:05 7.1 °C 5.9 °C 1017.5 hPa ENE 9.7 km/h 17.7 km/h 92 % 0 mm 0 W/m2
05:10 7.1 °C 5.9 °C 1017.5 hPa ENE 9.7 km/h 17.7 km/h 92 % 0 mm 0 W/m2
05:11 7.1 °C 5.9 °C 1017.2 hPa ENE 9.7 km/h 17.7 km/h 92 % 0 mm 0 W/m2
05:16 7.1 °C 5.9 °C 1017.2 hPa ENE 9.7 km/h 17.7 km/h 92 % 0 mm 0 W/m2
05:21 7.1 °C 5.9 °C 1017.2 hPa ENE 9.7 km/h 19.3 km/h 92 % 0 mm 0 W/m2
05:26 7.2 °C 6 °C 1017.2 hPa ENE 9.7 km/h 19.3 km/h 92 % 0 mm 0 W/m2
05:31 7.2 °C 6 °C 1017.2 hPa ENE 9.7 km/h 19.3 km/h 92 % 0 mm 0 W/m2
05:37 7.2 °C 6 °C 1017.2 hPa ENE 8 km/h 19.3 km/h 92 % 0 mm 0 W/m2
05:42 7.2 °C 6 °C 1017.2 hPa ENE 8 km/h 19.3 km/h 92 % 0 mm 0 W/m2
05:47 7.2 °C 6 °C 1017.2 hPa ENE 9.7 km/h 17.7 km/h 92 % 0 mm 0 W/m2
05:52 7.2 °C 6 °C 1017.2 hPa ENE 8 km/h 19.3 km/h 92 % 0 mm 5 W/m2
05:57 7.2 °C 6 °C 1017.2 hPa ENE 9.7 km/h 19.3 km/h 92 % 0 mm 11 W/m2
06:02 7.2 °C 6 °C 1016.8 hPa NE 11.3 km/h 19.3 km/h 92 % 0 mm 14 W/m2
06:07 7.2 °C 6 °C 1016.8 hPa NE 9.7 km/h 17.7 km/h 92 % 0 mm 14 W/m2
06:12 7.2 °C 6 °C 1016.8 hPa NE 8 km/h 16.1 km/h 92 % 0 mm 9 W/m2
06:17 7.2 °C 6 °C 1016.8 hPa NE 8 km/h 20.9 km/h 92 % 0 mm 12 W/m2
06:22 7.2 °C 6 °C 1016.8 hPa NE 8 km/h 20.9 km/h 92 % 0 mm 9 W/m2
06:27 7.2 °C 6 °C 1016.8 hPa NE 8 km/h 17.7 km/h 92 % 0 mm 9 W/m2
06:32 7.2 °C 6 °C 1016.8 hPa NE 9.7 km/h 20.9 km/h 92 % 0 mm 11 W/m2
06:37 7.3 °C 6.1 °C 1016.8 hPa NE 11.3 km/h 20.9 km/h 92 % 0 mm 11 W/m2
06:42 7.3 °C 6.2 °C 1016.8 hPa ENE 11.3 km/h 17.7 km/h 93 % 0 mm 12 W/m2
06:47 7.3 °C 6.2 °C 1016.5 hPa ENE 9.7 km/h 17.7 km/h 93 % 0 mm 12 W/m2
06:52 7.3 °C 6.2 °C 1016.5 hPa ENE 8 km/h 16.1 km/h 93 % 0 mm 12 W/m2
06:57 7.3 °C 6.1 °C 1016.8 hPa NE 8 km/h 17.7 km/h 92 % 0 mm 12 W/m2
07:02 7.3 °C 6.2 °C 1016.5 hPa NE 9.7 km/h 17.7 km/h 93 % 0 mm 14 W/m2
07:07 7.4 °C 6.3 °C 1016.5 hPa NE 8 km/h 17.7 km/h 93 % 0 mm 14 W/m2
07:12 7.4 °C 6.3 °C 1016.5 hPa NE 8 km/h 17.7 km/h 93 % 0 mm 16 W/m2
07:17 7.4 °C 6.2 °C 1016.5 hPa NE 8 km/h 17.7 km/h 92 % 0 mm 14 W/m2
07:22 7.4 °C 6.2 °C 1016.5 hPa NE 8 km/h 17.7 km/h 92 % 0 mm 14 W/m2
07:27 7.4 °C 6.2 °C 1016.5 hPa NE 9.7 km/h 17.7 km/h 92 % 0 mm 26 W/m2
07:32 7.4 °C 6.2 °C 1016.5 hPa ENE 9.7 km/h 16.1 km/h 92 % 0 mm 25 W/m2
07:37 7.4 °C 6.2 °C 1016.8 hPa ENE 8 km/h 16.1 km/h 92 % 0 mm 21 W/m2
07:42 7.5 °C 6.4 °C 1016.8 hPa ENE 8 km/h 16.1 km/h 93 % 0 mm 39 W/m2
07:47 7.6 °C 6.6 °C 1016.8 hPa ENE 8 km/h 12.9 km/h 93 % 0 mm 30 W/m2
07:52 7.6 °C 6.6 °C 1016.8 hPa ENE 8 km/h 16.1 km/h 93 % 0 mm 26 W/m2
07:57 7.7 °C 6.7 °C 1016.5 hPa ENE 8 km/h 16.1 km/h 93 % 0 mm 19 W/m2
08:02 7.7 °C 6.7 °C 1016.5 hPa ENE 8 km/h 14.5 km/h 93 % 0 mm 28 W/m2
08:08 7.7 °C 6.7 °C 1016.5 hPa ENE 8 km/h 14.5 km/h 93 % 0 mm 18 W/m2
08:13 7.8 °C 6.7 °C 1016.5 hPa East 6.4 km/h 12.9 km/h 93 % 0 mm 18 W/m2
08:18 7.8 °C 6.7 °C 1016.5 hPa East 6.4 km/h 16.1 km/h 93 % 0 mm 23 W/m2
08:23 7.9 °C 6.8 °C 1016.5 hPa ENE 6.4 km/h 16.1 km/h 93 % 0 mm 18 W/m2
08:28 7.9 °C 6.8 °C 1016.5 hPa ENE 4.8 km/h 14.5 km/h 93 % 0 mm 23 W/m2
08:33 8 °C 6.8 °C 1016.5 hPa ENE 4.8 km/h 11.3 km/h 92 % 0 mm 19 W/m2
08:38 8.1 °C 6.9 °C 1016.5 hPa NE 4.8 km/h 12.9 km/h 92 % 0 mm 23 W/m2
08:43 8.1 °C 6.9 °C 1016.5 hPa ENE 4.8 km/h 12.9 km/h 92 % 0 mm 51 W/m2
08:48 8.2 °C 7 °C 1016.5 hPa ENE 6.4 km/h 17.7 km/h 92 % 0 mm 51 W/m2
08:53 8.3 °C 7.1 °C 1016.5 hPa ENE 8 km/h 17.7 km/h 92 % 0 mm 44 W/m2
08:58 8.3 °C 7.1 °C 1016.5 hPa ENE 8 km/h 20.9 km/h 92 % 0 mm 46 W/m2
09:03 8.4 °C 7 °C 1016.5 hPa ENE 8 km/h 20.9 km/h 91 % 0 mm 35 W/m2
09:08 8.4 °C 7 °C 1016.5 hPa ENE 8 km/h 17.7 km/h 91 % 0 mm 49 W/m2
09:13 8.6 °C 7.1 °C 1016.5 hPa ENE 9.7 km/h 17.7 km/h 90 % 0 mm 62 W/m2
09:18 8.6 °C 6.9 °C 1016.5 hPa ENE 9.7 km/h 17.7 km/h 89 % 0 mm 74 W/m2
09:23 8.7 °C 7 °C 1016.5 hPa ENE 11.3 km/h 19.3 km/h 89 % 0 mm 84 W/m2
09:28 8.8 °C 6.9 °C 1016.5 hPa ENE 9.7 km/h 19.3 km/h 88 % 0 mm 93 W/m2
09:33 8.9 °C 7 °C 1016.5 hPa ENE 9.7 km/h 17.7 km/h 88 % 0 mm 86 W/m2
09:38 9 °C 6.8 °C 1016.5 hPa ENE 9.7 km/h 19.3 km/h 86 % 0 mm 79 W/m2
09:43 9.1 °C 6.9 °C 1016.5 hPa ENE 11.3 km/h 19.3 km/h 86 % 0 mm 97 W/m2
09:48 9.1 °C 6.7 °C 1016.5 hPa ENE 11.3 km/h 20.9 km/h 85 % 0 mm 102 W/m2
09:53 9.2 °C 6.8 °C 1016.5 hPa ENE 9.7 km/h 20.9 km/h 85 % 0 mm 93 W/m2
09:58 9.2 °C 6.8 °C 1016.5 hPa ENE 9.7 km/h 17.7 km/h 85 % 0 mm 109 W/m2
10:03 9.3 °C 6.9 °C 1016.5 hPa ENE 9.7 km/h 20.9 km/h 85 % 0 mm 90 W/m2
10:08 9.3 °C 6.9 °C 1016.5 hPa ENE 11.3 km/h 20.9 km/h 85 % 0 mm 132 W/m2
10:13 9.4 °C 7 °C 1016.1 hPa ENE 11.3 km/h 17.7 km/h 85 % 0 mm 116 W/m2
10:18 9.5 °C 6.9 °C 1016.1 hPa ENE 9.7 km/h 17.7 km/h 84 % 0 mm 163 W/m2
10:23 9.6 °C 7 °C 1016.1 hPa ENE 8 km/h 17.7 km/h 84 % 0 mm 206 W/m2
10:28 9.7 °C 6.9 °C 1016.1 hPa ENE 9.7 km/h 17.7 km/h 83 % 0 mm 188 W/m2
10:33 9.8 °C 6.9 °C 1016.1 hPa ENE 8 km/h 16.1 km/h 82 % 0 mm 163 W/m2
10:38 9.9 °C 6.9 °C 1016.1 hPa ENE 8 km/h 17.7 km/h 82 % 0 mm 181 W/m2
10:43 10 °C 6.9 °C 1016.1 hPa ENE 11.3 km/h 24.1 km/h 81 % 0 mm 183 W/m2
10:48 10 °C 6.9 °C 1016.1 hPa ENE 11.3 km/h 24.1 km/h 81 % 0 mm 120 W/m2
10:53 10 °C 6.7 °C 1016.1 hPa ENE 9.7 km/h 20.9 km/h 80 % 0 mm 91 W/m2
10:59 10 °C 6.7 °C 1016.1 hPa ENE 11.3 km/h 24.1 km/h 80 % 0 mm 81 W/m2
11:04 10 °C 6.7 °C 1016.1 hPa ENE 12.9 km/h 24.1 km/h 80 % 0 mm 172 W/m2
11:09 10.1 °C 7 °C 1016.1 hPa ENE 9.7 km/h 19.3 km/h 81 % 0 mm 176 W/m2
11:14 10.2 °C 6.9 °C 1016.1 hPa ENE 9.7 km/h 20.9 km/h 80 % 0 mm 178 W/m2
11:15 10.2 °C 6.9 °C 1016.1 hPa ENE 9.7 km/h 22.5 km/h 80 % 0 mm 169 W/m2
11:20 10.3 °C 7 °C 1016.1 hPa ENE 11.3 km/h 25.7 km/h 80 % 0 mm 163 W/m2
11:25 10.4 °C 6.9 °C 1016.1 hPa ENE 12.9 km/h 25.7 km/h 79 % 0 mm 278 W/m2
11:30 10.6 °C 7.1 °C 1016.1 hPa ENE 11.3 km/h 20.9 km/h 79 % 0 mm 221 W/m2
11:35 10.7 °C 7.2 °C 1016.1 hPa ENE 8 km/h 17.7 km/h 79 % 0 mm 195 W/m2
11:40 10.8 °C 7.1 °C 1015.8 hPa ENE 9.7 km/h 20.9 km/h 78 % 0 mm 118 W/m2
11:45 10.7 °C 7 °C 1015.8 hPa ENE 9.7 km/h 20.9 km/h 78 % 0 mm 114 W/m2
11:50 10.7 °C 6.8 °C 1015.8 hPa ENE 9.7 km/h 20.9 km/h 77 % 0 mm 250 W/m2
11:55 10.8 °C 6.9 °C 1015.8 hPa ENE 9.7 km/h 20.9 km/h 77 % 0 mm 288 W/m2
12:00 11.1 °C 7 °C 1015.8 hPa ENE 8 km/h 16.1 km/h 76 % 0 mm 246 W/m2
12:05 11.2 °C 6.9 °C 1015.8 hPa ENE 11.3 km/h 29 km/h 75 % 0 mm 216 W/m2
12:10 11.1 °C 6.6 °C 1015.8 hPa ENE 16.1 km/h 29 km/h 74 % 0 mm 172 W/m2
12:15 11.1 °C 6.8 °C 1015.8 hPa ENE 12.9 km/h 24.1 km/h 75 % 0 mm 225 W/m2
12:17 11.2 °C 6.7 °C 1015.8 hPa ENE 12.9 km/h 24.1 km/h 74 % 0 mm 237 W/m2
12:22 11.2 °C 6.7 °C 1015.8 hPa ENE 12.9 km/h 24.1 km/h 74 % 0 mm 160 W/m2
12:27 11.2 °C 6.7 °C 1015.8 hPa ENE 11.3 km/h 24.1 km/h 74 % 0 mm 130 W/m2
12:32 11.1 °C 6.6 °C 1015.8 hPa ENE 11.3 km/h 24.1 km/h 74 % 0 mm 146 W/m2
12:37 11 °C 6.6 °C 1015.8 hPa ENE 14.5 km/h 25.7 km/h 74 % 0 mm 221 W/m2
12:42 11 °C 6.6 °C 1015.8 hPa ENE 12.9 km/h 25.7 km/h 74 % 0 mm 207 W/m2
12:47 11.1 °C 6.6 °C 1015.8 hPa ENE 9.7 km/h 25.7 km/h 74 % 0 mm 234 W/m2
12:52 11.2 °C 6.7 °C 1015.8 hPa ENE 11.3 km/h 25.7 km/h 74 % 0 mm 251 W/m2
12:57 11.3 °C 6.6 °C 1015.8 hPa NE 11.3 km/h 25.7 km/h 73 % 0 mm 195 W/m2
13:02 11.3 °C 6.4 °C 1015.8 hPa NE 12.9 km/h 25.7 km/h 72 % 0 mm 176 W/m2
13:07 11.3 °C 6.2 °C 1015.8 hPa ENE 12.9 km/h 24.1 km/h 71 % 0 mm 151 W/m2
13:12 11.3 °C 6.2 °C 1015.8 hPa ENE 12.9 km/h 24.1 km/h 71 % 0 mm 185 W/m2
13:17 11.3 °C 6.4 °C 1015.8 hPa ENE 12.9 km/h 24.1 km/h 72 % 0 mm 200 W/m2
13:22 11.3 °C 6.2 °C 1015.8 hPa ENE 12.9 km/h 24.1 km/h 71 % 0 mm 186 W/m2
13:27 11.3 °C 6.4 °C 1015.8 hPa NE 12.9 km/h 25.7 km/h 72 % 0 mm 165 W/m2
13:32 11.3 °C 6.4 °C 1015.8 hPa NE 11.3 km/h 25.7 km/h 72 % 0 mm 107 W/m2
13:37 11.3 °C 6.4 °C 1015.8 hPa ENE 12.9 km/h 22.5 km/h 72 % 0 mm 95 W/m2
13:42 11.2 °C 6.6 °C 1015.8 hPa ENE 11.3 km/h 22.5 km/h 73 % 0 mm 77 W/m2
13:47 11.2 °C 6.6 °C 1015.8 hPa ENE 9.7 km/h 22.5 km/h 73 % 0 mm 97 W/m2
13:53 11.2 °C 6.7 °C 1015.8 hPa ENE 9.7 km/h 19.3 km/h 74 % 0 mm 104 W/m2
13:58 11.2 °C 6.7 °C 1015.8 hPa ENE 9.7 km/h 19.3 km/h 74 % 0 mm 104 W/m2
14:03 11.2 °C 6.7 °C 1015.8 hPa ENE 11.3 km/h 29 km/h 74 % 0 mm 74 W/m2
14:08 11.1 °C 6.8 °C 1015.8 hPa ENE 12.9 km/h 29 km/h 75 % 0 mm 83 W/m2
14:13 11.1 °C 7 °C 1015.8 hPa ENE 11.3 km/h 24.1 km/h 76 % 0 mm 116 W/m2
14:18 11.1 °C 7 °C 1015.8 hPa ENE 11.3 km/h 22.5 km/h 76 % 0 mm 120 W/m2
14:23 11.1 °C 7 °C 1015.8 hPa ENE 9.7 km/h 19.3 km/h 76 % 0 mm 120 W/m2
14:28 11.2 °C 7.3 °C 1015.8 hPa ENE 9.7 km/h 24.1 km/h 77 % 0 mm 204 W/m2
14:33 11.2 °C 7.3 °C 1015.8 hPa ENE 9.7 km/h 24.1 km/h 77 % 0 mm 113 W/m2
14:38 11.2 °C 7.1 °C 1015.8 hPa ENE 9.7 km/h 20.9 km/h 76 % 0 mm 151 W/m2
14:43 11.3 °C 7.2 °C 1015.8 hPa ENE 9.7 km/h 20.9 km/h 76 % 0 mm 146 W/m2
14:48 11.3 °C 7.2 °C 1015.8 hPa ENE 8 km/h 17.7 km/h 76 % 0 mm 162 W/m2
14:53 11.4 °C 7.3 °C 1015.5 hPa ENE 9.7 km/h 19.3 km/h 76 % 0 mm 139 W/m2
14:58 11.4 °C 7.3 °C 1015.5 hPa NE 8 km/h 19.3 km/h 76 % 0 mm 116 W/m2
15:03 11.4 °C 7.3 °C 1015.5 hPa ENE 8 km/h 19.3 km/h 76 % 0 mm 218 W/m2
15:08 11.6 °C 7.5 °C 1015.8 hPa ENE 8 km/h 19.3 km/h 76 % 0 mm 121 W/m2
15:13 11.7 °C 7.6 °C 1015.8 hPa ENE 6.4 km/h 14.5 km/h 76 % 0 mm 98 W/m2
15:18 11.6 °C 7.5 °C 1015.8 hPa ENE 8 km/h 20.9 km/h 76 % 0 mm 90 W/m2
15:23 11.6 °C 7.3 °C 1015.8 hPa ENE 9.7 km/h 20.9 km/h 75 % 0 mm 102 W/m2
15:28 11.6 °C 7.3 °C 1015.8 hPa ENE 11.3 km/h 20.9 km/h 75 % 0 mm 146 W/m2
15:33 11.6 °C 7.3 °C 1015.8 hPa ENE 11.3 km/h 20.9 km/h 75 % 0 mm 151 W/m2
15:38 11.6 °C 7.3 °C 1015.8 hPa ENE 11.3 km/h 20.9 km/h 75 % 0 mm 146 W/m2
15:43 11.7 °C 7.4 °C 1015.8 hPa ENE 11.3 km/h 20.9 km/h 75 % 0 mm 118 W/m2
15:48 11.7 °C 7.4 °C 1015.8 hPa ENE 11.3 km/h 20.9 km/h 75 % 0 mm 81 W/m2
15:53 11.6 °C 7.5 °C 1015.8 hPa ENE 11.3 km/h 20.9 km/h 76 % 0 mm 63 W/m2
15:58 11.5 °C 7.4 °C 1015.8 hPa ENE 11.3 km/h 22.5 km/h 76 % 0 mm 116 W/m2
16:03 11.4 °C 7.5 °C 1015.8 hPa ENE 9.7 km/h 22.5 km/h 77 % 0 mm 127 W/m2
16:08 11.4 °C 7.3 °C 1015.8 hPa NE 11.3 km/h 24.1 km/h 76 % 0 mm 93 W/m2
16:13 11.4 °C 7.5 °C 1015.8 hPa ENE 12.9 km/h 24.1 km/h 77 % 0 mm 156 W/m2
16:18 11.4 °C 7.5 °C 1015.8 hPa ENE 11.3 km/h 24.1 km/h 77 % 0 mm 54 W/m2
16:23 11.4 °C 7.5 °C 1015.8 hPa ENE 9.7 km/h 17.7 km/h 77 % 0 mm 44 W/m2
16:28 11.3 °C 7.4 °C 1015.8 hPa ENE 9.7 km/h 17.7 km/h 77 % 0 mm 44 W/m2
16:33 11.3 °C 7.6 °C 1015.8 hPa ENE 9.7 km/h 19.3 km/h 78 % 0 mm 53 W/m2
16:38 11.3 °C 7.6 °C 1015.8 hPa ENE 9.7 km/h 24.1 km/h 78 % 0 mm 49 W/m2
16:43 11.3 °C 7.6 °C 1015.8 hPa ENE 11.3 km/h 25.7 km/h 78 % 0 mm 102 W/m2
16:48 11.3 °C 7.6 °C 1015.8 hPa ENE 9.7 km/h 25.7 km/h 78 % 0 mm 125 W/m2
16:53 11.4 °C 7.7 °C 1015.8 hPa ENE 9.7 km/h 20.9 km/h 78 % 0 mm 146 W/m2
16:58 11.4 °C 7.7 °C 1015.8 hPa East 11.3 km/h 19.3 km/h 78 % 0 mm 156 W/m2
17:03 11.5 °C 7.8 °C 1015.8 hPa East 8 km/h 17.7 km/h 78 % 0 mm 167 W/m2
17:09 11.6 °C 7.7 °C 1015.8 hPa East 8 km/h 19.3 km/h 77 % 0 mm 123 W/m2
17:14 11.6 °C 7.5 °C 1015.8 hPa East 9.7 km/h 19.3 km/h 76 % 0 mm 137 W/m2
17:19 11.6 °C 7.5 °C 1015.8 hPa East 9.7 km/h 17.7 km/h 76 % 0 mm 90 W/m2
17:24 11.6 °C 7.7 °C 1015.8 hPa East 9.7 km/h 20.9 km/h 77 % 0 mm 127 W/m2
17:29 11.6 °C 7.7 °C 1016.1 hPa East 8 km/h 20.9 km/h 77 % 0 mm 146 W/m2
17:34 11.6 °C 7.9 °C 1015.8 hPa East 8 km/h 19.3 km/h 78 % 0 mm 114 W/m2
17:39 11.5 °C 7.6 °C 1016.1 hPa ENE 9.7 km/h 19.3 km/h 77 % 0 mm 107 W/m2
17:44 11.3 °C 7.4 °C 1016.1 hPa ENE 11.3 km/h 19.3 km/h 77 % 0 mm 81 W/m2
17:49 11.3 °C 7.6 °C 1016.1 hPa East 9.7 km/h 17.7 km/h 78 % 0 mm 72 W/m2
17:54 11.2 °C 7.5 °C 1016.1 hPa East 8 km/h 19.3 km/h 78 % 0 mm 91 W/m2
17:55 11.2 °C 7.5 °C 1016.1 hPa East 8 km/h 19.3 km/h 78 % 0 mm 98 W/m2
18:00 11.1 °C 7.6 °C 1016.1 hPa ENE 9.7 km/h 19.3 km/h 79 % 0 mm 116 W/m2
18:05 11.1 °C 7.6 °C 1016.1 hPa ENE 8 km/h 16.1 km/h 79 % 0 mm 109 W/m2
18:10 11.1 °C 7.6 °C 1016.1 hPa ENE 9.7 km/h 17.7 km/h 79 % 0 mm 88 W/m2
18:15 11.1 °C 7.6 °C 1016.1 hPa ENE 11.3 km/h 17.7 km/h 79 % 0 mm 107 W/m2
18:20 11.1 °C 7.6 °C 1016.1 hPa ENE 11.3 km/h 19.3 km/h 79 % 0 mm 98 W/m2
18:25 11 °C 7.7 °C 1016.1 hPa ENE 11.3 km/h 20.9 km/h 80 % 0 mm 81 W/m2
18:30 10.9 °C 7.6 °C 1016.5 hPa ENE 9.7 km/h 20.9 km/h 80 % 0 mm 60 W/m2
18:35 10.9 °C 7.6 °C 1016.5 hPa ENE 11.3 km/h 17.7 km/h 80 % 0 mm 56 W/m2
18:40 10.9 °C 7.6 °C 1016.5 hPa ENE 9.7 km/h 17.7 km/h 80 % 0 mm 62 W/m2
18:45 10.9 °C 7.6 °C 1016.5 hPa ENE 9.7 km/h 19.3 km/h 80 % 0 mm 69 W/m2
18:50 10.8 °C 7.5 °C 1016.5 hPa ENE 11.3 km/h 20.9 km/h 80 % 0 mm 44 W/m2
18:55 10.8 °C 7.7 °C 1016.5 hPa ENE 9.7 km/h 20.9 km/h 81 % 0 mm 40 W/m2
19:00 10.7 °C 7.6 °C 1016.5 hPa ENE 9.7 km/h 17.7 km/h 81 % 0 mm 49 W/m2
19:05 10.7 °C 7.6 °C 1016.5 hPa ENE 11.3 km/h 19.3 km/h 81 % 0 mm 37 W/m2
19:10 10.6 °C 7.5 °C 1016.5 hPa ENE 11.3 km/h 19.3 km/h 81 % 0 mm 46 W/m2
19:15 10.6 °C 7.5 °C 1016.5 hPa ENE 9.7 km/h 17.7 km/h 81 % 0 mm 47 W/m2
19:20 10.6 °C 7.5 °C 1016.5 hPa ENE 9.7 km/h 17.7 km/h 81 % 0 mm 39 W/m2
19:25 10.5 °C 7.6 °C 1016.5 hPa NE 9.7 km/h 17.7 km/h 82 % 0 mm 33 W/m2
19:30 10.4 °C 7.4 °C 1016.5 hPa NE 9.7 km/h 17.7 km/h 82 % 0 mm 33 W/m2
19:35 10.4 °C 7.4 °C 1016.8 hPa ENE 6.4 km/h 16.1 km/h 82 % 0 mm 35 W/m2
19:40 10.4 °C 7.6 °C 1016.8 hPa ENE 4.8 km/h 14.5 km/h 83 % 0 mm 33 W/m2
19:45 10.3 °C 7.6 °C 1016.8 hPa ENE 8 km/h 17.7 km/h 83 % 0 mm 30 W/m2
19:51 10.3 °C 7.6 °C 1016.8 hPa ENE 9.7 km/h 17.7 km/h 83 % 0 mm 26 W/m2
19:56 10.2 °C 7.6 °C 1016.8 hPa NE 8 km/h 16.1 km/h 84 % 0 mm 25 W/m2
20:01 10.2 °C 7.6 °C 1016.8 hPa NE 8 km/h 16.1 km/h 84 % 0 mm 25 W/m2
20:06 10.2 °C 7.6 °C 1016.8 hPa NE 6.4 km/h 14.5 km/h 84 % 0 mm 21 W/m2
20:11 10.1 °C 7.5 °C 1016.8 hPa NE 6.4 km/h 19.3 km/h 84 % 0 mm 19 W/m2
20:16 10.1 °C 7.5 °C 1016.8 hPa NE 8 km/h 19.3 km/h 84 % 0 mm 14 W/m2
20:21 10.1 °C 7.7 °C 1017.2 hPa NE 6.4 km/h 19.3 km/h 85 % 0 mm 11 W/m2
20:26 10 °C 7.6 °C 1017.2 hPa NE 6.4 km/h 19.3 km/h 85 % 0 mm 9 W/m2
20:31 9.9 °C 7.5 °C 1017.2 hPa NE 6.4 km/h 17.7 km/h 85 % 0 mm 7 W/m2
20:36 9.9 °C 7.5 °C 1017.2 hPa NE 8 km/h 17.7 km/h 85 % 0 mm 7 W/m2
20:41 9.9 °C 7.5 °C 1017.2 hPa NE 6.4 km/h 17.7 km/h 85 % 0 mm 5 W/m2
20:46 9.8 °C 7.4 °C 1017.5 hPa NE 8 km/h 14.5 km/h 85 % 0 mm 0 W/m2
20:51 9.8 °C 7.4 °C 1017.5 hPa NE 9.7 km/h 16.1 km/h 85 % 0 mm 0 W/m2
20:56 9.8 °C 7.6 °C 1017.5 hPa NE 6.4 km/h 16.1 km/h 86 % 0 mm 0 W/m2
21:01 9.8 °C 7.6 °C 1017.5 hPa NE 4.8 km/h 17.7 km/h 86 % 0 mm 0 W/m2
21:06 9.8 °C 7.6 °C 1017.5 hPa NE 4.8 km/h 17.7 km/h 86 % 0 mm 0 W/m2
21:11 9.8 °C 7.6 °C 1017.5 hPa NE 4.8 km/h 17.7 km/h 86 % 0 mm 0 W/m2
21:16 9.7 °C 7.4 °C 1017.8 hPa NE 6.4 km/h 17.7 km/h 86 % 0 mm 0 W/m2
21:21 9.7 °C 7.4 °C 1017.8 hPa NE 4.8 km/h 14.5 km/h 86 % 0 mm 0 W/m2
21:26 9.7 °C 7.4 °C 1017.8 hPa NE 6.4 km/h 17.7 km/h 86 % 0 mm 0 W/m2
21:31 9.7 °C 7.4 °C 1017.8 hPa NE 8 km/h 17.7 km/h 86 % 0 mm 0 W/m2
21:36 9.7 °C 7.4 °C 1017.8 hPa NE 4.8 km/h 14.5 km/h 86 % 0 mm 0 W/m2
21:41 9.7 °C 7.4 °C 1017.8 hPa NNE 4.8 km/h 12.9 km/h 86 % 0 mm 0 W/m2
21:46 9.6 °C 7.4 °C 1017.8 hPa NE 4.8 km/h 14.5 km/h 86 % 0 mm 0 W/m2
21:51 9.6 °C 7.4 °C 1017.8 hPa NE 6.4 km/h 14.5 km/h 86 % 0 mm 0 W/m2
21:56 9.6 °C 7.4 °C 1017.8 hPa NE 6.4 km/h 12.9 km/h 86 % 0 mm 0 W/m2
22:02 9.6 °C 7.4 °C 1017.8 hPa ENE 4.8 km/h 12.9 km/h 86 % 0 mm 0 W/m2
22:07 9.6 °C 7.4 °C 1018.2 hPa ENE 1.6 km/h 8 km/h 86 % 0 mm 0 W/m2
22:12 9.6 °C 7.4 °C 1018.2 hPa ENE 1.6 km/h 8 km/h 86 % 0 mm 0 W/m2
22:17 9.5 °C 7.4 °C 1018.2 hPa NE 3.2 km/h 8 km/h 87 % 0 mm 0 W/m2
22:21 9.5 °C 7.4 °C 1018.2 hPa NE 4.8 km/h 9.7 km/h 87 % 0 mm 0 W/m2
22:27 9.5 °C 7.4 °C 1018.2 hPa NE 3.2 km/h 9.7 km/h 87 % 0 mm 0 W/m2
22:32 9.5 °C 7.4 °C 1018.2 hPa NNE 3.2 km/h 9.7 km/h 87 % 0 mm 0 W/m2
22:37 9.4 °C 7.3 °C 1018.2 hPa NNE 1.6 km/h 8 km/h 87 % 0 mm 0 W/m2
22:42 9.4 °C 7.3 °C 1018.2 hPa NE 1.6 km/h 8 km/h 87 % 0 mm 0 W/m2
22:47 9.4 °C 7.3 °C 1018.2 hPa NNE 3.2 km/h 9.7 km/h 87 % 0 mm 0 W/m2
22:52 9.4 °C 7.3 °C 1018.5 hPa NNE 3.2 km/h 9.7 km/h 87 % 0 mm 0 W/m2
22:57 9.4 °C 7.3 °C 1018.5 hPa NE 1.6 km/h 9.7 km/h 87 % 0 mm 0 W/m2
23:02 9.4 °C 7.3 °C 1018.5 hPa NE 1.6 km/h 11.3 km/h 87 % 0 mm 0 W/m2
23:07 9.4 °C 7.3 °C 1018.5 hPa NE 4.8 km/h 11.3 km/h 87 % 0 mm 0 W/m2
23:12 9.4 °C 7.3 °C 1018.5 hPa NNE 3.2 km/h 9.7 km/h 87 % 0 mm 0 W/m2
23:17 9.5 °C 7.4 °C 1018.5 hPa North 3.2 km/h 12.9 km/h 87 % 0 mm 0 W/m2
23:22 9.5 °C 7.4 °C 1018.5 hPa North 4.8 km/h 12.9 km/h 87 % 0 mm 0 W/m2
23:27 9.5 °C 7.4 °C 1018.5 hPa North 6.4 km/h 12.9 km/h 87 % 0 mm 0 W/m2
23:32 9.4 °C 7.2 °C 1018.5 hPa North 6.4 km/h 12.9 km/h 86 % 0 mm 0 W/m2
23:37 9.4 °C 7.2 °C 1018.5 hPa North 6.4 km/h 12.9 km/h 86 % 0 mm 0 W/m2
23:42 9.4 °C 7.2 °C 1018.5 hPa North 4.8 km/h 14.5 km/h 86 % 0 mm 0 W/m2
23:47 9.4 °C 7 °C 1018.5 hPa North 4.8 km/h 16.1 km/h 85 % 0 mm 0 W/m2
23:52 9.4 °C 7 °C 1018.5 hPa North 4.8 km/h 16.1 km/h 85 % 0 mm 0 W/m2
23:57 9.4 °C 7 °C 1018.5 hPa North 3.2 km/h 9.7 km/h 85 % 0 mm 0 W/m2
Delerius-Weather
Compliments of Weather Underground - 2.25 mb

Data updates at regular intervals.